EHI
0 2 5 5 4 4 4 5 6 6 5 5 3 1 0 1 2 3 4 5 5 3 2 3 5 4 2 1 0 0 0 0 0 0 0 0 0 0 0 1 2 1 0
0 2 5 7 6 4 4 4 4 4 4 4 3 1 0 0 1 2 3 3 3 2 1 2 4 3 1 0 0 0 0 0 0 0 0 0 0 0 0 1 1 1 0
0 1 5 8 7 5 4 4 4 4 3 3 2 1 0 0 0 1 2 1 1 1 0 1 1 1 1 0 0 0 0 0 0 0 0 0 0 0 1 1 1 0 0
0 0 3 6 7 5 4 5 5 4 3 2 2 1 0 0 0 0 0 0 0 0 0 0 1 1 2 2 1 0 0 0 0 1 0 0 0 0 1 1 0 0 0
0 0 2 5 5 4 4 5 5 4 3 2 1 1 0 0 0 0 0 0 0 0 1 1 1 2 3 3 2 1 0 0 0 0 0 0 0 0 1 1 0 0 0
0 0 1 4 4 2 2 4 4 4 3 2 1 0 0 0 0 0 0 1 0 0 1 2 2 2 3 3 2 1 0 0 0 0 0 0 0 0 0 0 0 0 0
0 0 1 2 2 1 1 3 3 3 2 1 0 0 0 0 0 0 0 0 0 0 2 3 2 2 3 3 1 1 0 0 0 0 0 0 0 0 0 0 0 0 0
0 0 0 1 1 1 1 1 2 2 1 0 1 1 1 0 0 1 1 0 0 1 2 3 1 1 2 2 1 1 0 0 0 0 0 0 1 1 1 0 0 0 0
0 0 0 0 0 0 1 1 1 1 1 0 1 1 1 1 1 2 2 2 1 1 2 1 0 0 1 1 0 0 0 0 0 0 0 1 2 3 2 1 0 0 0
0 0 0 0 0 0 0 1 1 0 0 0 0 1 2 2 2 2 3 4 3 1 0 0 0 0 0 1 1 1 0 0 0 0 0 1 3 4 4 2 1 0 0
0 0 0 0 0 0 0 0 0 0 0 0 0 1 1 1 1 1 2 4 4 2 1 1 1 1 1 1 2 2 1 0 0 0 1 3 5 5 4 3 2 1 1
0 0 0 0 0 0 0 0 0 0 0 0 0 1 2 1 0 0 1 2 3 2 2 2 2 1 1 1 1 1 1 0 0 0 1 3 4 3 3 2 2 1 0
0 0 0 0 0 0 0 0 0 0 0 0 0 1 2 2 1 0 0 1 2 2 2 1 1 1 0 0 0 0 0 0 1 0 1 2 2 1 1 1 1 1 0
0 0 0 0 1 1 1 1 0 0 0 0 0 1 3 2 1 0 0 0 2 4 3 2 1 1 0 0 0 0 0 0 0 0 1 2 3 2 1 1 3 3 2
0 0 0 1 2 2 2 2 1 2 2 1 1 3 3 2 1 0 0 1 2 4 4 3 2 1 0 0 0 0 0 0 0 0 1 3 4 3 2 3 4 5 4
0 0 2 3 3 3 3 3 2 2 3 3 4 4 3 2 1 1 1 1 1 2 3 3 1 0 0 0 0 0 0 0 0 0 0 2 3 3 3 3 3 4 5
1 2 4 5 4 3 3 3 2 2 3 4 5 5 4 3 3 2 1 1 1 1 2 3 2 1 0 0 0 0 0 0 0 0 0 0 1 1 2 2 2 2 4
5 7 8 7 5 4 3 3 2 2 3 4 4 4 3 3 4 3 2 2 2 2 2 3 2 2 1 0 0 0 0 0 0 0 0 0 0 0 1 3 4 4 4
10 11 11 8 7 7 6 4 3 3 4 4 3 3 3 3 3 3 3 3 3 2 2 2 2 1 1 0 0 0 0 1 1 0 0 0 0 1 2 4 7 8 7
13 14 13 11 10 10 9 7 5 4 3 3 3 3 3 3 3 3 3 3 3 3 2 1 1 1 1 1 1 1 1 1 1 1 0 0 0 1 3 5 8 9 9
15 16 17 16 14 12 12 10 7 5 4 2 3 3 3 3 3 3 3 3 3 3 3 2 1 1 2 2 2 2 2 1 2 2 1 0 1 2 3 4 7 8 8
16 17 19 19 16 13 12 11 9 7 5 4 4 6 5 4 4 4 3 3 4 3 3 4 4 3 3 4 4 4 3 2 2 2 1 1 3 3 2 2 4 5 6
14 15 17 18 17 14 11 10 8 6 6 6 7 8 8 7 6 5 4 4 4 4 4 6 7 6 6 6 6 5 4 3 2 2 2 3 4 4 1 0 1 3 5
11 12 15 17 18 16 13 10 8 6 5 6 7 9 9 9 7 6 6 6 6 6 5 6 8 10 9 8 7 6 5 4 3 3 4 4 4 3 1 1 2 4 4
8 10 15 20 21 20 18 14 10 7 5 5 7 9 10 10 9 7 8 9 9 8 7 7 9 11 11 10 8 8 6 5 3 3 4 4 4 4 4 5 7 7 6
6 9 15 23 26 25 22 19 14 9 6 6 9 11 11 10 9 9 9 10 9 8 8 9 9 9 11 11 9 8 6 5 3 2 2 4 4 6 7 8 10 10 8
Wind_Speed
4 7 8 5 6 6 7 8 9 10 10 11 11 11 11 11 11 11 11 12 12 13 13 13 13 12 12 12 12 11 11 10 10 10 10 10 9 9 9 8 7 8 10
5 7 9 6 7 8 8 9 9 10 10 11 11 11 11 10 11 11 11 11 12 12 12 12 12 12 11 11 11 11 10 10 10 10 10 9 9 8 7 5 3 7 9
5 7 8 7 7 8 8 9 9 10 10 10 10 11 10 10 10 10 11 11 12 12 12 12 12 12 11 10 10 10 10 9 9 9 7 7 8 8 7 6 7 8 8
5 6 8 8 7 8 8 9 9 10 9 9 10 10 10 10 10 10 10 11 12 12 11 11 12 12 11 10 10 10 9 9 8 7 4 5 6 8 7 6 7 7 7
6 7 9 8 8 8 9 9 9 9 9 9 9 10 10 10 10 10 10 11 11 11 11 11 11 11 11 10 10 9 9 8 7 5 4 4 5 7 7 6 6 7 7
6 7 10 8 8 8 8 8 9 9 9 9 9 9 9 9 10 10 10 10 11 11 11 11 11 11 11 10 10 9 8 7 6 4 4 3 4 7 7 6 6 6 6
6 7 10 9 8 7 7 8 8 8 8 8 8 9 9 9 9 9 9 10 11 11 10 10 11 10 10 10 9 9 7 5 2 3 3 3 4 6 6 6 5 6 6
6 6 9 9 8 7 7 7 8 8 8 8 8 8 8 8 8 8 9 9 10 10 9 10 10 10 10 9 8 7 6 5 4 3 3 3 6 6 6 5 5 5 6
6 6 6 7 9 9 8 7 7 8 7 8 8 8 8 8 8 8 8 8 9 9 9 9 9 9 9 8 8 7 5 4 2 2 3 3 6 6 6 5 5 5 5
5 5 5 5 6 7 9 9 8 8 7 7 7 7 7 8 8 8 8 9 9 9 9 9 9 9 8 8 7 6 5 5 3 3 2 4 6 5 5 5 5 5 5
6 4 5 5 6 6 6 8 8 8 7 7 7 7 5 4 6 6 9 9 8 8 8 8 8 8 7 8 7 6 6 2 2 1 2 6 5 5 5 5 4 4 5
6 5 4 5 6 6 5 5 4 5 5 4 4 4 4 4 4 6 10 9 8 7 8 8 8 8 6 4 6 7 2 2 1 1 4 5 4 4 5 5 4 5 5
6 5 5 5 5 5 4 4 3 3 3 4 5 4 4 3 4 4 4 6 6 7 5 7 7 4 2 2 1 1 1 1 1 1 4 5 3 4 4 4 5 5 5
5 5 5 5 4 4 3 3 3 3 3 3 4 3 3 2 3 3 2 2 2 2 3 2 2 3 3 2 2 2 2 1 1 1 3 4 3 3 4 4 6 6 6
5 5 5 4 4 4 3 1 3 3 2 4 3 3 2 2 3 3 2 2 1 2 3 2 2 3 3 3 3 3 2 1 1 1 3 5 3 3 4 5 6 6 6
4 4 4 4 4 4 3 2 2 2 2 2 2 3 2 2 2 1 2 1 1 1 2 2 3 2 2 2 2 2 2 2 1 2 1 4 5 4 4 4 5 6 6
5 5 4 5 4 3 2 2 2 2 2 2 2 3 2 2 2 1 2 2 2 2 2 2 2 2 2 2 2 2 2 1 1 2 2 1 3 6 4 4 4 5 6
5 5 4 3 5 4 2 1 1 1 2 2 1 2 2 2 1 1 1 2 1 1 2 2 2 1 1 1 1 1 1 2 2 2 2 2 1 2 5 4 4 5 6
5 6 5 4 3 3 3 2 1 1 1 1 1 1 2 1 1 1 1 1 2 1 2 2 2 1 1 1 1 2 2 2 2 2 2 2 2 2 2 5 5 5 6
6 6 6 5 4 3 3 2 1 1 1 1 1 1 1 1 1 1 2 2 2 2 1 1 1 1 1 1 1 0 1 1 2 2 3 2 2 3 3 2 4 6 7
7 6 6 5 5 4 2 2 2 2 1 1 1 1 1 0 0 1 1 2 1 1 1 2 2 2 2 1 2 1 2 3 2 2 2 1 2 2 3 3 3 2 5
7 7 6 6 5 4 2 1 1 0 0 1 0 1 1 1 1 1 1 2 1 1 2 2 2 2 1 1 2 2 2 2 2 2 2 2 2 2 3 3 3 3 3
8 8 6 6 5 5 3 3 2 2 2 2 1 1 1 1 1 1 0 1 1 2 2 2 3 3 2 2 2 3 3 1 0 2 1 1 2 2 2 2 3 3 3
8 8 7 7 6 5 5 4 4 2 2 1 1 1 1 1 1 1 1 1 2 2 1 3 2 2 3 2 2 2 3 3 3 1 2 2 2 2 2 3 2 3 3
8 7 7 7 6 6 5 5 4 3 2 2 1 1 1 2 2 1 1 1 2 2 2 2 2 3 3 3 2 2 2 3 4 4 2 2 2 2 2 2 2 2 2
7 7 7 7 7 6 6 6 5 4 3 2 2 2 3 2 2 2 2 2 2 2 2 3 3 4 3 3 3 3 3 3 3 3 3 3 2 2 1 1 2 2 2
Wind_Direction
71 77 88 84 89 99 104 106 106 110 112 116 120 124 129 134 136 140 144 143 142 142 142 142 141 139 137 135 134 131 128 127 125 124 123 121 122 125 130 139 152 131 125
74 84 92 84 90 96 102 105 106 109 111 115 119 122 126 131 137 139 141 142 143 144 143 143 140 139 138 136 134 132 130 129 127 128 128 127 124 124 130 135 115 112 129
78 90 102 93 95 97 101 105 109 110 113 114 117 121 125 129 135 138 141 143 144 144 143 143 141 138 135 133 133 133 131 128 128 135 152 138 128 128 127 125 123 129 137
77 87 85 92 96 100 105 108 108 109 112 114 114 118 120 122 127 134 139 141 140 141 142 141 139 137 136 134 135 132 130 130 139 165 159 130 128 127 132 132 139 144 149
82 88 86 89 92 97 104 108 108 109 112 114 114 118 121 122 125 128 129 133 135 135 135 138 140 141 141 138 134 131 131 136 157 183 123 118 116 125 137 142 145 155 161
92 96 95 91 94 97 102 106 108 107 108 113 116 117 120 122 125 127 129 132 133 134 134 135 136 140 141 138 135 131 134 148 181 141 133 140 131 138 148 150 154 158 168
89 91 100 96 96 99 102 105 107 108 108 109 112 115 119 121 125 127 131 131 135 136 135 137 136 138 139 136 137 139 145 174 182 146 147 142 122 140 152 154 161 165 164
88 94 109 116 109 105 102 100 105 106 107 107 108 110 115 119 121 125 133 133 135 136 138 143 141 140 140 141 140 144 158 202 171 154 146 126 119 146 152 157 164 166 168
86 97 103 122 130 131 119 109 103 102 104 107 110 114 116 118 121 124 129 132 132 136 139 143 145 146 144 144 143 149 167 221 214 157 151 129 136 158 163 166 166 168 168
82 88 101 111 120 135 130 121 111 107 107 112 114 118 128 134 131 133 138 132 132 137 139 139 139 143 144 144 148 161 181 218 201 167 140 120 144 165 172 172 169 167 171
85 80 80 97 116 117 112 121 131 130 125 142 137 140 155 130 120 128 108 123 130 133 136 136 138 143 150 153 160 176 201 211 151 118 101 111 148 171 177 177 176 172 175
96 89 78 83 99 106 107 117 121 123 118 113 100 119 119 107 106 106 118 126 130 136 144 143 146 164 184 161 164 190 202 173 159 144 105 128 165 184 188 184 184 183 187
105 96 95 92 87 91 107 110 103 103 105 108 103 107 107 116 118 115 124 139 144 155 149 148 167 164 146 127 169 170 153 189 154 143 118 138 173 202 204 191 183 193 201
106 104 96 100 96 84 78 104 113 106 105 104 111 109 109 104 103 98 101 102 118 117 129 145 147 127 132 155 167 161 189 212 184 144 123 150 187 212 217 201 200 203 208
118 111 103 101 104 107 106 99 103 100 96 103 99 101 103 115 109 112 103 101 111 122 138 139 129 133 149 164 170 167 178 199 212 207 136 157 198 221 226 213 214 210 208
130 123 117 120 118 118 121 116 108 114 117 98 103 98 95 93 87 98 115 114 106 108 103 124 130 143 145 141 159 166 192 187 173 235 191 169 187 203 213 215 216 209 209
146 140 138 138 128 125 120 129 131 131 122 110 104 107 101 105 106 129 122 137 112 123 131 135 135 145 158 167 165 169 189 194 185 214 239 224 176 180 197 215 216 211 212
154 150 156 152 138 140 136 128 122 109 103 108 109 107 109 106 127 153 119 115 129 144 136 147 168 159 155 175 174 196 190 189 205 213 217 204 225 179 173 187 213 211 203
166 163 162 162 156 148 144 149 140 127 123 119 109 105 110 129 145 177 128 118 174 154 165 187 147 178 170 185 196 194 210 210 218 218 221 212 207 221 191 154 184 195 199
171 172 169 166 165 170 165 158 154 133 146 147 129 107 118 145 151 207 170 157 185 165 165 157 159 186 217 237 261 239 237 213 224 225 232 210 201 213 215 199 193 192 197
176 176 178 178 167 179 183 192 165 157 155 137 136 109 134 84 129 227 212 155 204 170 182 187 188 184 211 220 246 236 202 210 215 221 234 237 210 222 217 218 236 226 188
180 182 182 186 183 192 182 198 182 145 182 121 89 109 195 180 223 201 191 216 191 179 193 194 208 244 233 234 279 273 230 189 192 216 213 209 240 233 218 216 226 227 245
185 186 186 186 185 194 190 191 182 175 206 172 164 160 185 206 213 310 202 262 229 232 197 211 212 228 249 239 270 295 300 321 272 182 219 210 217 241 247 234 218 215 226
188 184 184 184 186 187 189 198 203 203 198 178 206 161 173 202 217 220 235 263 259 253 215 230 206 231 240 248 229 266 293 319 295 270 214 207 220 236 255 251 226 209 217
186 184 182 182 186 186 192 196 210 216 207 198 193 160 225 197 216 227 233 245 247 253 244 257 225 243 238 258 268 259 247 248 261 275 282 283 260 247 241 242 252 239 223
181 182 181 180 186 187 192 198 208 216 226 238 234 215 223 203 201 203 225 241 250 260 245 245 238 226 243 260 273 268 264 260 270 265 269 266 269 263 259 260 257 242 232